Regional Weather Roundup
Issued by NWS

Home | Current Version | Previous Version | Graphics & Text | Print | Product List | Glossary On
Versions: 1 2 3 4 5 6 7 8 9 10 11 12 13 14 15 16 17 18 19 20 21 22 23 24 25 26 27
000
ASUS45 KBOU 052307
RWRCO

WEATHER ROUNDUP FOR COLORADO
NATIONAL WEATHER SERVICE DENVER/BOULDER CO
500 PM MDT THU MAY 05 2016

NOTE: "FAIR" INDICATES FEW OR NO CLOUDS BELOW 12000 FEET WITH NO
SIGNIFICANT WEATHER AND/OR OBSTRUCTIONS TO VISIBILITY.

COZ001>005-013-030-031-060000-
...NORTHWEST COLORADO...

CITY           SKY/WX    TMP DP  RH WIND       PRES   REMARKS
CRAIG          FAIR      76  30  18 E13       30.03F
HAYDEN         FAIR      73  25  16 N6        30.06F
MEEKER         PTSUNNY   78  24  13 S7        30.02F
MOUNT WERNER   NOT AVBL
STEAMBOAT SPGS FAIR      72  26  17 NW5       30.08F
WALDEN         CLOUDY    68  21  17 E6        30.19F
$$

COZ006>008-011-060000-
...WEST CENTRAL VALLEYS...

CITY           SKY/WX    TMP DP  RH WIND       PRES   REMARKS
GRAND JUNCTION FAIR      80  25  13 S5        29.89F
MONTROSE       FAIR      79  25  13 CALM      29.99F
EAGLE          SUNNY     75  21  13 CALM      30.06F
RIFLE          FAIR      80  25  13 NW8       29.96F
DELTA          NOT AVBL
NUCLA          NOT AVBL
$$

COZ017>023-064>068-060000-
...SOUTHWEST COLORADO...

CITY           SKY/WX    TMP DP  RH WIND       PRES   REMARKS
DURANGO        FAIR      72  25  17 E9        30.07F
CORTEZ         FAIR      80  27  14 S14G22    29.99F
PAGOSA SPRINGS FAIR      71  15  12 SW7       30.17F
TELLURIDE      FAIR      64  20  18 SE5       30.23F
WOLF CREEK PAS PTSUNNY   45  21  39 SW7       30.46F
$$

COZ009-010-012-014-032>034-037-058>063-060000-
...CENTRAL COLORADO...

CITY           SKY/WX    TMP DP  RH WIND       PRES   REMARKS
ASPEN          FAIR      71  21  15 NW12G21   30.12F
BUENA VISTA    FAIR      69  19  14 SE12      30.16F
COPPER MTN     NOT AVBL
BERTHOUD PASS  FAIR      41  32  70 MISG      30.47F
COTTONWOOD PAS PTSUNNY   64  14  14 SE12      30.29F
GUNNISON       FAIR      70  21  16 CALM      30.15F
KREMMLING      FAIR      77   9   7 S9        30.12F
LEADVILLE      FAIR      58  12  16 CALM      30.27F
MONARCH PASS   PTSUNNY   46  19  34 E16G26    30.53F
SALIDA         FAIR      75  14   9 SE7G16    30.20F
SUNLIGHT       FAIR      59  16  18 CALM      30.36F
WILKERSON PASS PTSUNNY   52  18  25 CALM      30.43S
$$

COZ069>075-060000-
...SAN LUIS VALLEY/SANGRE DE CRISTO MOUNTAINS...

CITY           SKY/WX    TMP DP  RH WIND       PRES   REMARKS
ALAMOSA        FAIR      72  19  13 VRB6      30.15F
LA VETA PASS   CLOUDY    54  27  35 NE10      30.34F
SAGUACHE       FAIR      72  23  16 S7        30.18F
$$

COZ035-036-038>040-060000-
...NORTHERN COLORADO FRONT RANGE...

CITY           SKY/WX    TMP DP  RH WIND       PRES   REMARKS
DENVER INTL AP PTSUNNY   76  34  21 E10       30.02F
DMNS CITY PARK   N/A     77  28  16 E6G15     30.00F
AURORA         FAIR      76  33  21 E10       30.05F
FRONT RANGE AP PTSUNNY   75  34  22 E8        30.04
ERIE MUNI ARPT FAIR      78  27  15 E7        30.00F
BOULDER MUN AP FAIR      77  32  19 E7        30.01S
CENTENNIAL     PTSUNNY   75  29  18 E12       30.05F
BROOMFIELD     PTSUNNY   75  36  23 E10       30.04F
FORT COLLINS   FAIR      79  39  24 SE8       29.98F
LONGMONT       FAIR      79  36  20 E5        30.01F
$$

COZ041-046-047-076>085-087-088-060000-
...PIKES PEAK/PALMER DIVIDE AND SOUTHERN FOOTHILLS...

CITY           SKY/WX    TMP DP  RH WIND       PRES   REMARKS
COLO. SPRINGS  FAIR      78  24  13 S13       30.08F
A. F. ACADEMY  FAIR      75  27  16 S16       30.08F
SCHRIEVER AFB  NOT AVBL
ELLICOTT       FAIR     N/A N/A N/A S15       30.08F
FALCON         NOT AVBL
FORT CARSON    FAIR      76  31  19 E10G21    30.05F
LIMON          FAIR      76  34  21 S13G23    30.06F
MONUMENT HILL  FAIR      70  32  24 SE15      30.15F
TRINIDAD       FAIR      79  24  13 SE12G18   30.05F
$$

COZ042>045-048>051-090-091-060000-
...NORTHEAST COLORADO...

CITY           SKY/WX    TMP DP  RH WIND       PRES   REMARKS
GREELEY ARPT   FAIR      81  39  22 S9        30.00F
AKRON          FAIR      80  36  20 S16       30.01F
BURLINGTON     FAIR      80  33  18 SE17      30.03F
WRAY           NOT AVBL
STERLING       FAIR      81  43  26 SE13      29.95F
HOLYOKE        NOT AVBL
FORT MORGAN    FAIR      82  30  15 SE7       29.99F
$$

COZ086-089-092>099-060000-
...SOUTHEAST COLORADO...

CITY           SKY/WX    TMP DP  RH WIND       PRES   REMARKS
PUEBLO         FAIR      84  31  14 SE12      29.99F
LA JUNTA       FAIR      84  38  19 SE10G17   29.99F
LAMAR          FAIR      84  41  21 SE14      29.96F
SPRINGFIELD      N/A     81  40  23 E6        30.00F
$$




USA.gov is the U.S. government's official web portal to all federal, state and local government web resources and services.